User: anonymous   Login
Location: Wawayanda State Park
(41.1833°N, 74.4333°W)
Time: 21:38:35
(UTC-04:00)
Language:

RESURS DK-1 - Orbit

View from above orbital plane
View from above orbital plane
View from above satellite
View from above satellite

Ground track
Ground track

The orbit data is extracted from the following two-line orbital elements,

1 29228U 06021A   16152.85266467  .00000335  00000-0  32987-4 0  9995
2 29228  69.9381 348.1031 0006995 226.9314 133.1262 15.01911609550840
Epoch (UTC): 31 May 2016 20:27:50
Eccentricity: 0.0006995
inclination: 69.9381°
perigee height: 556 km
apogee height: 566 km
right ascension of ascending node: 348.1031°
argument of perigee: 226.9314°
revolutions per day: 15.01911609
mean anomaly at epoch: 133.1262°
orbit number at epoch: 55084

The dashed part of the orbit path shows where the satellite is in the earth's shadow,  

DLR